Year,Month,Day,Hour,Minute,Value (Times are PST for temperature in C)
2017,06,26,00,00,23.90
2017,06,26,00,01,23.80
2017,06,26,00,02,23.70
2017,06,26,00,03,23.70
2017,06,26,00,04,23.70
2017,06,26,00,05,23.70
2017,06,26,00,06,23.60
2017,06,26,00,07,23.60
2017,06,26,00,08,23.60
2017,06,26,00,09,23.60
2017,06,26,00,10,23.50
2017,06,26,00,11,23.40
2017,06,26,00,12,23.40
2017,06,26,00,13,23.30
2017,06,26,00,14,23.30
2017,06,26,00,15,23.30
2017,06,26,00,16,23.20
2017,06,26,00,17,23.20
2017,06,26,00,18,23.20
2017,06,26,00,19,23.10
2017,06,26,00,20,23.00
2017,06,26,00,21,22.90
2017,06,26,00,22,22.80
2017,06,26,00,23,22.60
2017,06,26,00,24,22.50
2017,06,26,00,25,22.40
2017,06,26,00,26,22.30
2017,06,26,00,27,22.20
2017,06,26,00,28,22.20
2017,06,26,00,29,22.20
2017,06,26,00,30,22.20
2017,06,26,00,31,22.10
2017,06,26,00,32,22.10
2017,06,26,00,33,22.10
2017,06,26,00,34,22.10
2017,06,26,00,35,22.10
2017,06,26,00,36,22.10
2017,06,26,00,37,22.20
2017,06,26,00,38,22.20
2017,06,26,00,39,22.30
2017,06,26,00,40,22.40
2017,06,26,00,41,22.50
2017,06,26,00,42,22.50
2017,06,26,00,43,22.60
2017,06,26,00,44,22.60
2017,06,26,00,45,22.60
2017,06,26,00,46,22.60
2017,06,26,00,47,22.60
2017,06,26,00,48,22.60
2017,06,26,00,49,22.50
2017,06,26,00,50,22.50
2017,06,26,00,51,22.40
2017,06,26,00,52,22.40
2017,06,26,00,53,22.30
2017,06,26,00,54,22.20
2017,06,26,00,55,22.10
2017,06,26,00,56,22.10
2017,06,26,00,57,22.00
2017,06,26,00,58,21.90
2017,06,26,00,59,21.90
2017,06,26,01,00,21.90
2017,06,26,01,01,21.90
2017,06,26,01,02,21.90
2017,06,26,01,03,21.90
2017,06,26,01,04,21.90
2017,06,26,01,05,21.90
2017,06,26,01,06,21.90
2017,06,26,01,07,21.90
2017,06,26,01,08,21.90
2017,06,26,01,09,21.90
2017,06,26,01,10,21.90
2017,06,26,01,11,21.90
2017,06,26,01,12,21.90
2017,06,26,01,13,21.90
2017,06,26,01,14,21.90
2017,06,26,01,15,21.90
2017,06,26,01,16,21.90
2017,06,26,01,17,21.80
2017,06,26,01,18,21.70
2017,06,26,01,19,21.70
2017,06,26,01,20,21.60
2017,06,26,01,21,21.50
2017,06,26,01,22,21.50
2017,06,26,01,23,21.40
2017,06,26,01,24,21.30
2017,06,26,01,25,21.30
2017,06,26,01,26,21.30
2017,06,26,01,27,21.30
2017,06,26,01,28,21.30
2017,06,26,01,29,21.30
2017,06,26,01,30,21.30
2017,06,26,01,31,21.30
2017,06,26,01,32,21.30
2017,06,26,01,33,21.20
2017,06,26,01,34,21.20
2017,06,26,01,35,21.20
2017,06,26,01,36,21.20
2017,06,26,01,37,21.20
2017,06,26,01,38,21.20
2017,06,26,01,39,21.20
2017,06,26,01,40,21.20
2017,06,26,01,41,21.20
2017,06,26,01,42,21.20
2017,06,26,01,43,21.20
2017,06,26,01,44,21.20
2017,06,26,01,45,21.10
2017,06,26,01,46,21.10
2017,06,26,01,47,21.10
2017,06,26,01,48,21.10
2017,06,26,01,49,21.10
2017,06,26,01,50,21.10
2017,06,26,01,51,21.10
2017,06,26,01,52,21.10
2017,06,26,01,53,21.10
2017,06,26,01,54,21.10
2017,06,26,01,55,21.10
2017,06,26,01,56,21.10
2017,06,26,01,57,21.10
2017,06,26,01,58,21.10
2017,06,26,01,59,21.00
2017,06,26,02,00,21.00
2017,06,26,02,01,20.90
2017,06,26,02,02,20.90
2017,06,26,02,03,20.80
2017,06,26,02,04,20.80
2017,06,26,02,05,20.80
2017,06,26,02,06,20.70
2017,06,26,02,07,20.70
2017,06,26,02,08,20.60
2017,06,26,02,09,20.60
2017,06,26,02,10,20.60
2017,06,26,02,11,20.50
2017,06,26,02,12,20.50
2017,06,26,02,13,20.50
2017,06,26,02,14,20.40
2017,06,26,02,15,20.40
2017,06,26,02,16,20.40
2017,06,26,02,17,20.40
2017,06,26,02,18,20.40
2017,06,26,02,19,20.40
2017,06,26,02,20,20.40
2017,06,26,02,21,20.40
2017,06,26,02,22,20.40
2017,06,26,02,23,20.40
2017,06,26,02,24,20.40
2017,06,26,02,25,20.40
2017,06,26,02,26,20.40
2017,06,26,02,27,20.40
2017,06,26,02,28,20.40
2017,06,26,02,29,20.40
2017,06,26,02,30,20.30
2017,06,26,02,31,20.30
2017,06,26,02,32,20.20
2017,06,26,02,33,20.20
2017,06,26,02,34,20.20
2017,06,26,02,35,20.20
2017,06,26,02,36,20.10
2017,06,26,02,37,20.10
2017,06,26,02,38,20.00
2017,06,26,02,39,19.90
2017,06,26,02,40,19.80
2017,06,26,02,41,19.80
2017,06,26,02,42,19.80
2017,06,26,02,43,19.80
2017,06,26,02,44,19.80
2017,06,26,02,45,19.80
2017,06,26,02,46,19.80
2017,06,26,02,47,19.80
2017,06,26,02,48,19.80
2017,06,26,02,49,19.80
2017,06,26,02,50,19.90
2017,06,26,02,51,19.90
2017,06,26,02,52,19.80
2017,06,26,02,53,19.80
2017,06,26,02,54,19.80
2017,06,26,02,55,19.80
2017,06,26,02,56,19.70
2017,06,26,02,57,19.70
2017,06,26,02,58,19.60
2017,06,26,02,59,19.60
2017,06,26,03,00,19.50
2017,06,26,03,01,19.50
2017,06,26,03,02,19.40
2017,06,26,03,03,19.40
2017,06,26,03,04,19.40
2017,06,26,03,05,19.40
2017,06,26,03,06,19.30
2017,06,26,03,07,19.30
2017,06,26,03,08,19.30
2017,06,26,03,09,19.30
2017,06,26,03,10,19.30
2017,06,26,03,11,19.30
2017,06,26,03,12,19.30
2017,06,26,03,13,19.30
2017,06,26,03,14,19.40
2017,06,26,03,15,19.40
2017,06,26,03,16,19.40
2017,06,26,03,17,19.50
2017,06,26,03,18,19.50
2017,06,26,03,19,19.50
2017,06,26,03,20,19.50
2017,06,26,03,21,19.50
2017,06,26,03,22,19.50
2017,06,26,03,23,19.50
2017,06,26,03,24,19.50
2017,06,26,03,25,19.50
2017,06,26,03,26,19.50
2017,06,26,03,27,19.50
2017,06,26,03,28,19.50
2017,06,26,03,29,19.50
2017,06,26,03,30,19.40
2017,06,26,03,31,19.40
2017,06,26,03,32,19.40
2017,06,26,03,33,19.40
2017,06,26,03,34,19.40
2017,06,26,03,35,19.40
2017,06,26,03,36,19.40
2017,06,26,03,37,19.40
2017,06,26,03,38,19.40
2017,06,26,03,39,19.40
2017,06,26,03,40,19.40
2017,06,26,03,41,19.40
2017,06,26,03,42,19.40
2017,06,26,03,43,19.40
2017,06,26,03,44,19.40
2017,06,26,03,45,19.40
2017,06,26,03,46,19.40
2017,06,26,03,47,19.40
2017,06,26,03,48,19.40
2017,06,26,03,49,19.40
2017,06,26,03,50,19.40
2017,06,26,03,51,19.30
2017,06,26,03,52,19.30
2017,06,26,03,53,19.30
2017,06,26,03,54,19.30
2017,06,26,03,55,19.30
2017,06,26,03,56,19.30
2017,06,26,03,57,19.20
2017,06,26,03,58,19.20
2017,06,26,03,59,19.20
2017,06,26,04,00,19.10
2017,06,26,04,01,19.10
2017,06,26,04,02,19.10
2017,06,26,04,03,19.10
2017,06,26,04,04,19.10
2017,06,26,04,05,19.10
2017,06,26,04,06,19.10
2017,06,26,04,07,19.10
2017,06,26,04,08,19.10
2017,06,26,04,09,19.10
2017,06,26,04,10,19.10
2017,06,26,04,11,19.00
2017,06,26,04,12,19.00
2017,06,26,04,13,19.00
2017,06,26,04,14,18.90
2017,06,26,04,15,18.90
2017,06,26,04,16,18.90
2017,06,26,04,17,18.80
2017,06,26,04,18,18.80
2017,06,26,04,19,18.80
2017,06,26,04,20,18.80
2017,06,26,04,21,18.80
2017,06,26,04,22,18.90
2017,06,26,04,23,18.90
2017,06,26,04,24,18.90
2017,06,26,04,25,19.00
2017,06,26,04,26,19.00
2017,06,26,04,27,19.00
2017,06,26,04,28,19.00
2017,06,26,04,29,19.00
2017,06,26,04,30,19.10
2017,06,26,04,31,19.10
2017,06,26,04,32,19.00
2017,06,26,04,33,19.00
2017,06,26,04,34,19.00
2017,06,26,04,35,19.00
2017,06,26,04,36,19.00
2017,06,26,04,37,18.90
2017,06,26,04,38,18.90
2017,06,26,04,39,18.90
2017,06,26,04,40,18.90
2017,06,26,04,41,18.80
2017,06,26,04,42,18.80
2017,06,26,04,43,18.80
2017,06,26,04,44,18.70
2017,06,26,04,45,18.70
2017,06,26,04,46,18.60
2017,06,26,04,47,18.60
2017,06,26,04,48,18.50
2017,06,26,04,49,18.50
2017,06,26,04,50,18.50
2017,06,26,04,51,18.40
2017,06,26,04,52,18.40
2017,06,26,04,53,18.40
2017,06,26,04,54,18.40
2017,06,26,04,55,18.30
2017,06,26,04,56,18.30
2017,06,26,04,57,18.30
2017,06,26,04,58,18.30
2017,06,26,04,59,18.30
2017,06,26,05,00,18.30
2017,06,26,05,01,18.30
2017,06,26,05,02,18.30
2017,06,26,05,03,18.20
2017,06,26,05,04,18.20
2017,06,26,05,05,18.20
2017,06,26,05,06,18.20
2017,06,26,05,07,18.20
2017,06,26,05,08,18.20
2017,06,26,05,09,18.10
2017,06,26,05,10,18.20
2017,06,26,05,11,18.20
2017,06,26,05,12,18.20
2017,06,26,05,13,18.20
2017,06,26,05,14,18.20
2017,06,26,05,15,18.20
2017,06,26,05,16,18.20
2017,06,26,05,17,18.20
2017,06,26,05,18,18.20
2017,06,26,05,19,18.20
2017,06,26,05,20,18.10
2017,06,26,05,21,18.10
2017,06,26,05,22,18.10
2017,06,26,05,23,18.10
2017,06,26,05,24,18.10
2017,06,26,05,25,18.10
2017,06,26,05,26,18.10
2017,06,26,05,27,18.00
2017,06,26,05,28,18.00
2017,06,26,05,29,18.00
2017,06,26,05,30,18.00
2017,06,26,05,31,18.10
2017,06,26,05,32,18.10
2017,06,26,05,33,18.10
2017,06,26,05,34,18.10
2017,06,26,05,35,18.10
2017,06,26,05,36,18.10
2017,06,26,05,37,18.10
2017,06,26,05,38,18.10
2017,06,26,05,39,18.10
2017,06,26,05,40,18.10
2017,06,26,05,41,18.10
2017,06,26,05,42,18.10
2017,06,26,05,43,18.10
2017,06,26,05,44,18.10
2017,06,26,05,45,18.10
2017,06,26,05,46,18.10
2017,06,26,05,47,18.10
2017,06,26,05,48,18.10
2017,06,26,05,49,18.20
2017,06,26,05,50,18.30
2017,06,26,05,51,18.30
2017,06,26,05,52,18.30
2017,06,26,05,53,18.30
2017,06,26,05,54,18.30
2017,06,26,05,55,18.30
2017,06,26,05,56,18.40
2017,06,26,05,57,18.40
2017,06,26,05,58,18.50
2017,06,26,05,59,18.60
2017,06,26,06,00,18.60
2017,06,26,06,01,18.70
2017,06,26,06,02,18.70
2017,06,26,06,03,18.80
2017,06,26,06,04,18.90
2017,06,26,06,05,19.00
2017,06,26,06,06,19.20
2017,06,26,06,07,19.30
2017,06,26,06,08,19.40
2017,06,26,06,09,19.50
2017,06,26,06,10,19.60
2017,06,26,06,11,19.70
2017,06,26,06,12,19.70
2017,06,26,06,13,19.70
2017,06,26,06,14,19.80
2017,06,26,06,15,19.80
2017,06,26,06,16,19.80
2017,06,26,06,17,19.80
2017,06,26,06,18,19.80
2017,06,26,06,19,19.80
2017,06,26,06,20,19.80
2017,06,26,06,21,19.80
2017,06,26,06,22,19.80
2017,06,26,06,23,19.80
2017,06,26,06,24,19.80
2017,06,26,06,25,19.80
2017,06,26,06,26,19.80
2017,06,26,06,27,19.70
2017,06,26,06,28,19.70
2017,06,26,06,29,19.70
2017,06,26,06,30,19.70
2017,06,26,06,31,19.70
2017,06,26,06,32,19.70
2017,06,26,06,33,19.70
2017,06,26,06,34,19.70
2017,06,26,06,35,19.70
2017,06,26,06,36,19.70
2017,06,26,06,37,19.70
2017,06,26,06,38,19.70
2017,06,26,06,39,19.70
2017,06,26,06,40,19.80
2017,06,26,06,41,19.80
2017,06,26,06,42,19.80
2017,06,26,06,43,19.80
2017,06,26,06,44,19.80
2017,06,26,06,45,19.90
2017,06,26,06,46,19.90
2017,06,26,06,47,20.00
2017,06,26,06,48,20.00
2017,06,26,06,49,20.00
2017,06,26,06,50,20.10
2017,06,26,06,51,20.10
2017,06,26,06,52,20.10
2017,06,26,06,53,20.10
2017,06,26,06,54,20.10
2017,06,26,06,55,20.10
2017,06,26,06,56,20.10
2017,06,26,06,57,20.10
2017,06,26,06,58,20.10
2017,06,26,06,59,20.20
2017,06,26,07,00,20.20
2017,06,26,07,01,20.20
2017,06,26,07,02,20.20
2017,06,26,07,03,20.20
2017,06,26,07,04,20.20
2017,06,26,07,05,20.20
2017,06,26,07,06,20.20
2017,06,26,07,07,20.20
2017,06,26,07,08,20.20
2017,06,26,07,09,20.20
2017,06,26,07,10,20.20
2017,06,26,07,11,20.10
2017,06,26,07,12,20.10
2017,06,26,07,13,20.10
2017,06,26,07,14,20.10
2017,06,26,07,15,20.10
2017,06,26,07,16,20.10
2017,06,26,07,17,20.10
2017,06,26,07,18,20.10
2017,06,26,07,19,20.00
2017,06,26,07,20,20.00
2017,06,26,07,21,20.00
2017,06,26,07,22,20.00
2017,06,26,07,23,20.00
2017,06,26,07,24,20.00
2017,06,26,07,25,20.00
2017,06,26,07,26,20.00
2017,06,26,07,27,20.00
2017,06,26,07,28,20.00
2017,06,26,07,29,20.00
2017,06,26,07,30,19.90
2017,06,26,07,31,19.90
2017,06,26,07,32,19.90
2017,06,26,07,33,19.90
2017,06,26,07,34,19.90
2017,06,26,07,35,19.90
2017,06,26,07,36,19.90
2017,06,26,07,37,19.90
2017,06,26,07,38,19.90
2017,06,26,07,39,20.00
2017,06,26,07,40,20.00
2017,06,26,07,41,20.00
2017,06,26,07,42,20.00
2017,06,26,07,43,20.00
2017,06,26,07,44,20.00
2017,06,26,07,45,20.00
2017,06,26,07,46,20.00
2017,06,26,07,47,20.00
2017,06,26,07,48,20.00
2017,06,26,07,49,20.00
2017,06,26,07,50,19.90
2017,06,26,07,51,20.00
2017,06,26,07,52,19.90
2017,06,26,07,53,19.90
2017,06,26,07,54,19.90
2017,06,26,07,55,19.90
2017,06,26,07,56,19.90
2017,06,26,07,57,19.90
2017,06,26,07,58,19.90
2017,06,26,07,59,19.80
2017,06,26,08,00,19.80
2017,06,26,08,01,19.80
2017,06,26,08,02,19.80
2017,06,26,08,03,19.80
2017,06,26,08,04,19.70
2017,06,26,08,05,19.70
2017,06,26,08,06,19.70
2017,06,26,08,07,19.70
2017,06,26,08,08,19.70
2017,06,26,08,09,19.60
2017,06,26,08,10,19.60
2017,06,26,08,11,19.60
2017,06,26,08,12,19.50
2017,06,26,08,13,19.50
2017,06,26,08,14,19.40
2017,06,26,08,15,19.40
2017,06,26,08,16,19.40
2017,06,26,08,17,19.40
2017,06,26,08,18,19.30
2017,06,26,08,19,19.30
2017,06,26,08,20,19.30
2017,06,26,08,21,19.30
2017,06,26,08,22,19.40
2017,06,26,08,23,19.40
2017,06,26,08,24,19.40
2017,06,26,08,25,19.40
2017,06,26,08,26,19.40
2017,06,26,08,27,19.40
2017,06,26,08,28,19.50
2017,06,26,08,29,19.60
2017,06,26,08,30,19.70
2017,06,26,08,31,19.80
2017,06,26,08,32,19.80
2017,06,26,08,33,19.90
2017,06,26,08,34,20.00
2017,06,26,08,35,20.00
2017,06,26,08,36,20.00
2017,06,26,08,37,19.90
2017,06,26,08,38,19.80
2017,06,26,08,39,19.70
2017,06,26,08,40,19.60
2017,06,26,08,41,19.40
2017,06,26,08,42,19.30
2017,06,26,08,43,19.20
2017,06,26,08,44,19.10
2017,06,26,08,45,19.00
2017,06,26,08,46,18.90
2017,06,26,08,47,18.90
2017,06,26,08,48,18.90
2017,06,26,08,49,18.90
2017,06,26,08,50,18.90
2017,06,26,08,51,18.90
2017,06,26,08,52,19.00
2017,06,26,08,53,19.00
2017,06,26,08,54,19.00
2017,06,26,08,55,19.00
2017,06,26,08,56,19.00
2017,06,26,08,57,19.00
2017,06,26,08,58,19.00
2017,06,26,08,59,19.10
2017,06,26,09,00,19.20
2017,06,26,09,01,19.20
2017,06,26,09,02,19.30
2017,06,26,09,03,19.40
2017,06,26,09,04,19.40
2017,06,26,09,05,19.40
2017,06,26,09,06,19.50
2017,06,26,09,07,19.50
2017,06,26,09,08,19.60
2017,06,26,09,09,19.60
2017,06,26,09,10,19.60
2017,06,26,09,11,19.60
2017,06,26,09,12,19.60
2017,06,26,09,13,19.70
2017,06,26,09,14,19.70
2017,06,26,09,15,19.70
2017,06,26,09,16,19.70
2017,06,26,09,17,19.70
2017,06,26,09,18,19.70
2017,06,26,09,19,19.70
2017,06,26,09,20,19.70
2017,06,26,09,21,19.70
2017,06,26,09,22,19.70
2017,06,26,09,23,19.70
2017,06,26,09,24,19.80
2017,06,26,09,25,19.80
2017,06,26,09,26,19.90
2017,06,26,09,27,19.90
2017,06,26,09,28,20.00
2017,06,26,09,29,20.00
2017,06,26,09,30,20.10
2017,06,26,09,31,20.10
2017,06,26,09,32,20.20
2017,06,26,09,33,20.20
2017,06,26,09,34,20.10
2017,06,26,09,35,20.10
2017,06,26,09,36,20.00
2017,06,26,09,37,20.00
2017,06,26,09,38,20.00
2017,06,26,09,39,20.10
2017,06,26,09,40,20.10
2017,06,26,09,41,20.10
2017,06,26,09,42,20.10
2017,06,26,09,43,20.20
2017,06,26,09,44,20.20
2017,06,26,09,45,20.30
2017,06,26,09,46,20.40
2017,06,26,09,47,20.30
2017,06,26,09,48,20.30
2017,06,26,09,49,20.30
2017,06,26,09,50,20.30
2017,06,26,09,51,20.40
2017,06,26,09,52,20.50
2017,06,26,09,53,20.60
2017,06,26,09,54,20.80
2017,06,26,09,55,20.90
2017,06,26,09,56,20.90
2017,06,26,09,57,20.90
2017,06,26,09,58,20.90
2017,06,26,09,59,20.90
2017,06,26,10,00,21.00
2017,06,26,10,01,21.10
2017,06,26,10,02,21.10
2017,06,26,10,03,21.10
2017,06,26,10,04,21.10
2017,06,26,10,05,21.10
2017,06,26,10,06,21.20
2017,06,26,10,07,21.20
2017,06,26,10,08,21.30
2017,06,26,10,09,21.30
2017,06,26,10,10,21.40
2017,06,26,10,11,21.40
2017,06,26,10,12,21.50
2017,06,26,10,13,21.50
2017,06,26,10,14,21.60
2017,06,26,10,15,21.60
2017,06,26,10,16,21.60
2017,06,26,10,17,21.70
2017,06,26,10,18,21.70
2017,06,26,10,19,21.80
2017,06,26,10,20,21.90
2017,06,26,10,21,22.00
2017,06,26,10,22,22.00
2017,06,26,10,23,22.00
2017,06,26,10,24,22.10
2017,06,26,10,25,22.20
2017,06,26,10,26,22.30
2017,06,26,10,27,22.30
2017,06,26,10,28,22.30
2017,06,26,10,29,22.30
2017,06,26,10,30,22.40
2017,06,26,10,31,22.40
2017,06,26,10,32,22.30
2017,06,26,10,33,22.30
2017,06,26,10,34,22.20
2017,06,26,10,35,22.10
2017,06,26,10,36,22.10
2017,06,26,10,37,22.10
2017,06,26,10,38,22.10
2017,06,26,10,39,22.00
2017,06,26,10,40,21.90
2017,06,26,10,41,21.80
2017,06,26,10,42,21.80
2017,06,26,10,43,21.70
2017,06,26,10,44,21.70
2017,06,26,10,45,21.70
2017,06,26,10,46,21.80
2017,06,26,10,47,21.80
2017,06,26,10,48,21.80
2017,06,26,10,49,21.80
2017,06,26,10,50,21.70
2017,06,26,10,51,21.80
2017,06,26,10,52,21.80
2017,06,26,10,53,21.80
2017,06,26,10,54,21.70
2017,06,26,10,55,21.50
2017,06,26,10,56,21.40
2017,06,26,10,57,21.30
2017,06,26,10,58,21.20
2017,06,26,10,59,21.20
2017,06,26,11,00,21.20
2017,06,26,11,01,21.30
2017,06,26,11,02,21.50
2017,06,26,11,03,21.70
2017,06,26,11,04,21.80
2017,06,26,11,05,22.00
2017,06,26,11,06,22.00
2017,06,26,11,07,22.10
2017,06,26,11,08,22.00
2017,06,26,11,09,22.00
2017,06,26,11,10,22.10
2017,06,26,11,11,22.00
2017,06,26,11,12,21.90
2017,06,26,11,13,21.80
2017,06,26,11,14,21.80
2017,06,26,11,15,21.70
2017,06,26,11,16,21.70
2017,06,26,11,17,21.80
2017,06,26,11,18,21.90
2017,06,26,11,19,22.10
2017,06,26,11,20,22.20
2017,06,26,11,21,22.20
2017,06,26,11,22,22.20
2017,06,26,11,23,22.30
2017,06,26,11,24,22.30
2017,06,26,11,25,22.40
2017,06,26,11,26,22.40
2017,06,26,11,27,22.30
2017,06,26,11,28,22.30
2017,06,26,11,29,22.30
2017,06,26,11,30,22.20
2017,06,26,11,31,22.10
2017,06,26,11,32,22.20
2017,06,26,11,33,22.20
2017,06,26,11,34,22.30
2017,06,26,11,35,22.40
2017,06,26,11,36,22.30
2017,06,26,11,37,22.20
2017,06,26,11,38,22.10
2017,06,26,11,39,22.10
2017,06,26,11,40,22.00
2017,06,26,11,41,21.90
2017,06,26,11,42,21.90
2017,06,26,11,43,21.80
2017,06,26,11,44,21.70
2017,06,26,11,45,21.70
2017,06,26,11,46,21.70
2017,06,26,11,47,21.60
2017,06,26,11,48,21.50
2017,06,26,11,49,21.60
2017,06,26,11,50,21.60
2017,06,26,11,51,21.70
2017,06,26,11,52,21.70
2017,06,26,11,53,21.70
2017,06,26,11,54,21.60
2017,06,26,11,55,21.50
2017,06,26,11,56,21.50
2017,06,26,11,57,21.50
2017,06,26,11,58,21.50
2017,06,26,11,59,21.60
2017,06,26,12,00,21.60
2017,06,26,12,01,21.60
2017,06,26,12,02,21.60
2017,06,26,12,03,21.50
2017,06,26,12,04,21.50
2017,06,26,12,05,21.50
2017,06,26,12,06,21.50
2017,06,26,12,07,21.50
2017,06,26,12,08,21.50
2017,06,26,12,09,21.40
2017,06,26,12,10,21.40
2017,06,26,12,11,21.40
2017,06,26,12,12,21.40
2017,06,26,12,13,21.30
2017,06,26,12,14,21.40
2017,06,26,12,15,21.40
2017,06,26,12,16,21.40
2017,06,26,12,17,21.40
2017,06,26,12,18,21.40
2017,06,26,12,19,21.40
2017,06,26,12,20,21.30
2017,06,26,12,21,21.40
2017,06,26,12,22,21.30
2017,06,26,12,23,21.30
2017,06,26,12,24,21.20
2017,06,26,12,25,21.20
2017,06,26,12,26,21.20
2017,06,26,12,27,21.20
2017,06,26,12,28,21.20
2017,06,26,12,29,21.20
2017,06,26,12,30,21.30
2017,06,26,12,31,21.20
2017,06,26,12,32,21.20
2017,06,26,12,33,21.10
2017,06,26,12,34,21.10
2017,06,26,12,35,21.20
2017,06,26,12,36,21.20
2017,06,26,12,37,21.20
2017,06,26,12,38,21.30
2017,06,26,12,39,21.30
2017,06,26,12,40,21.30
2017,06,26,12,41,21.40
2017,06,26,12,42,21.40
2017,06,26,12,43,21.40
2017,06,26,12,44,21.30
2017,06,26,12,45,21.30
2017,06,26,12,46,21.30
2017,06,26,12,47,21.30
2017,06,26,12,48,21.30
2017,06,26,12,49,21.30
2017,06,26,12,50,21.30
2017,06,26,12,51,21.30
2017,06,26,12,52,21.40
2017,06,26,12,53,21.40
2017,06,26,12,54,21.40
2017,06,26,12,55,21.40
2017,06,26,12,56,21.40
2017,06,26,12,57,21.60
2017,06,26,12,58,21.60
2017,06,26,12,59,21.60
2017,06,26,13,00,21.60
2017,06,26,13,01,21.70
2017,06,26,13,02,21.70
2017,06,26,13,03,21.80
2017,06,26,13,04,21.80
2017,06,26,13,05,21.80
2017,06,26,13,06,21.70
2017,06,26,13,07,21.70
2017,06,26,13,08,21.80
2017,06,26,13,09,21.70
2017,06,26,13,10,21.70
2017,06,26,13,11,21.70
2017,06,26,13,12,21.60
2017,06,26,13,13,21.60
2017,06,26,13,14,21.50
2017,06,26,13,15,21.50
2017,06,26,13,16,21.60
2017,06,26,13,17,21.50
2017,06,26,13,18,21.50
2017,06,26,13,19,21.60
2017,06,26,13,20,21.70
2017,06,26,13,21,21.80
2017,06,26,13,22,21.80
2017,06,26,13,23,21.80
2017,06,26,13,24,21.90
2017,06,26,13,25,21.90
2017,06,26,13,26,22.00
2017,06,26,13,27,21.90
2017,06,26,13,28,21.90
2017,06,26,13,29,21.90
2017,06,26,13,30,22.00
2017,06,26,13,31,21.90
2017,06,26,13,32,21.90
2017,06,26,13,33,21.90
2017,06,26,13,34,21.80
2017,06,26,13,35,21.80
2017,06,26,13,36,21.70
2017,06,26,13,37,21.70
2017,06,26,13,38,21.90
2017,06,26,13,39,22.00
2017,06,26,13,40,22.10
2017,06,26,13,41,22.00
2017,06,26,13,42,22.00
2017,06,26,13,43,22.00
2017,06,26,13,44,22.00
2017,06,26,13,45,22.00
2017,06,26,13,46,21.90
2017,06,26,13,47,21.80
2017,06,26,13,48,21.70
2017,06,26,13,49,21.70
2017,06,26,13,50,21.70
2017,06,26,13,51,21.60
2017,06,26,13,52,21.70
2017,06,26,13,53,21.80
2017,06,26,13,54,21.80
2017,06,26,13,55,21.70
2017,06,26,13,56,21.80
2017,06,26,13,57,21.80
2017,06,26,13,58,21.90
2017,06,26,13,59,22.00
2017,06,26,14,00,22.20
2017,06,26,14,01,22.30
2017,06,26,14,02,22.40
2017,06,26,14,03,22.40
2017,06,26,14,04,22.40
2017,06,26,14,05,22.40
2017,06,26,14,06,22.50
2017,06,26,14,07,22.50
2017,06,26,14,08,22.50
2017,06,26,14,09,22.70
2017,06,26,14,10,22.90
2017,06,26,14,11,23.00
2017,06,26,14,12,23.00
2017,06,26,14,13,23.00
2017,06,26,14,14,23.00
2017,06,26,14,15,22.90
2017,06,26,14,16,22.70
2017,06,26,14,17,22.50
2017,06,26,14,18,22.40
2017,06,26,14,19,22.30
2017,06,26,14,20,22.20
2017,06,26,14,21,22.30
2017,06,26,14,22,22.40
2017,06,26,14,23,22.40
2017,06,26,14,24,22.40
2017,06,26,14,25,22.50
2017,06,26,14,26,22.60
2017,06,26,14,27,22.70
2017,06,26,14,28,22.80
2017,06,26,14,29,22.80
2017,06,26,14,30,22.80
2017,06,26,14,31,22.80
2017,06,26,14,32,22.80
2017,06,26,14,33,23.00
2017,06,26,14,34,23.00
2017,06,26,14,35,23.10
2017,06,26,14,36,23.00
2017,06,26,14,37,23.00
2017,06,26,14,38,23.10
2017,06,26,14,39,23.20
2017,06,26,14,40,23.30
2017,06,26,14,41,23.30
2017,06,26,14,42,23.30
2017,06,26,14,43,23.20
2017,06,26,14,44,23.10
2017,06,26,14,45,23.10
2017,06,26,14,46,23.20
2017,06,26,14,47,23.10
2017,06,26,14,48,23.00
2017,06,26,14,49,23.10
2017,06,26,14,50,23.10
2017,06,26,14,51,23.30
2017,06,26,14,52,23.50
2017,06,26,14,53,23.60
2017,06,26,14,54,23.60
2017,06,26,14,55,23.60
2017,06,26,14,56,23.70
2017,06,26,14,57,23.70
2017,06,26,14,58,23.60
2017,06,26,14,59,23.60
2017,06,26,15,00,23.50
2017,06,26,15,01,23.50
2017,06,26,15,02,23.50
2017,06,26,15,03,23.60
2017,06,26,15,04,23.50
2017,06,26,15,05,23.50
2017,06,26,15,06,23.40
2017,06,26,15,07,23.40
2017,06,26,15,08,23.40
2017,06,26,15,09,23.40
2017,06,26,15,10,23.40
2017,06,26,15,11,23.30
2017,06,26,15,12,23.30
2017,06,26,15,13,23.20
2017,06,26,15,14,23.20
2017,06,26,15,15,23.10
2017,06,26,15,16,23.00
2017,06,26,15,17,23.00
2017,06,26,15,18,23.10
2017,06,26,15,19,23.20
2017,06,26,15,20,23.40
2017,06,26,15,21,23.50
2017,06,26,15,22,23.70
2017,06,26,15,23,23.70
2017,06,26,15,24,23.70
2017,06,26,15,25,23.80
2017,06,26,15,26,23.70
2017,06,26,15,27,23.60
2017,06,26,15,28,23.60
2017,06,26,15,29,23.60
2017,06,26,15,30,23.70
2017,06,26,15,31,23.80
2017,06,26,15,32,23.90
2017,06,26,15,33,24.00
2017,06,26,15,34,24.00
2017,06,26,15,35,23.90
2017,06,26,15,36,23.90
2017,06,26,15,37,23.90
2017,06,26,15,38,23.90
2017,06,26,15,39,23.90
2017,06,26,15,40,23.90
2017,06,26,15,41,23.80
2017,06,26,15,42,23.80
2017,06,26,15,43,23.90
2017,06,26,15,44,24.00
2017,06,26,15,45,24.10
2017,06,26,15,46,24.10
2017,06,26,15,47,24.20
2017,06,26,15,48,24.40
2017,06,26,15,49,24.50
2017,06,26,15,50,24.60
2017,06,26,15,51,24.60
2017,06,26,15,52,24.50
2017,06,26,15,53,24.50
2017,06,26,15,54,24.50
2017,06,26,15,55,24.40
2017,06,26,15,56,24.30
2017,06,26,15,57,24.30
2017,06,26,15,58,24.30
2017,06,26,15,59,24.10
2017,06,26,16,00,24.00
2017,06,26,16,01,23.90
2017,06,26,16,02,23.80
2017,06,26,16,03,23.80
2017,06,26,16,04,23.90
2017,06,26,16,05,24.00
2017,06,26,16,06,24.10
2017,06,26,16,07,24.20
2017,06,26,16,08,24.30
2017,06,26,16,09,24.30
2017,06,26,16,10,24.40
2017,06,26,16,11,24.40
2017,06,26,16,12,24.40
2017,06,26,16,13,24.40
2017,06,26,16,14,24.50
2017,06,26,16,15,24.60
2017,06,26,16,16,24.60
2017,06,26,16,17,24.70
2017,06,26,16,18,24.70
2017,06,26,16,19,24.70
2017,06,26,16,20,24.70
2017,06,26,16,21,24.70
2017,06,26,16,22,24.60
2017,06,26,16,23,24.70
2017,06,26,16,24,24.70
2017,06,26,16,25,24.80
2017,06,26,16,26,24.90
2017,06,26,16,27,25.10
2017,06,26,16,28,25.20
2017,06,26,16,29,25.40
2017,06,26,16,30,25.60
2017,06,26,16,31,25.70
2017,06,26,16,32,25.80
2017,06,26,16,33,25.80
2017,06,26,16,34,25.70
2017,06,26,16,35,25.60
2017,06,26,16,36,25.60
2017,06,26,16,37,25.50
2017,06,26,16,38,25.40
2017,06,26,16,39,25.20
2017,06,26,16,40,25.10
2017,06,26,16,41,25.00
2017,06,26,16,42,24.80
2017,06,26,16,43,24.70
2017,06,26,16,44,24.60
2017,06,26,16,45,24.60
2017,06,26,16,46,24.50
2017,06,26,16,47,24.50
2017,06,26,16,48,24.40
2017,06,26,16,49,24.40
2017,06,26,16,50,24.30
2017,06,26,16,51,24.30
2017,06,26,16,52,24.30
2017,06,26,16,53,24.20
2017,06,26,16,54,24.20
2017,06,26,16,55,24.20
2017,06,26,16,56,24.30
2017,06,26,16,57,24.30
2017,06,26,16,58,24.30
2017,06,26,16,59,24.30
2017,06,26,17,00,24.30
2017,06,26,17,01,24.20
2017,06,26,17,02,24.20
2017,06,26,17,03,24.30
2017,06,26,17,04,24.30
2017,06,26,17,05,24.40
2017,06,26,17,06,24.50
2017,06,26,17,07,24.50
2017,06,26,17,08,24.50
2017,06,26,17,09,24.60
2017,06,26,17,10,24.50
2017,06,26,17,11,24.40
2017,06,26,17,12,24.30
2017,06,26,17,13,24.30
2017,06,26,17,14,24.20
2017,06,26,17,15,24.20
2017,06,26,17,16,24.10
2017,06,26,17,17,24.10
2017,06,26,17,18,24.10
2017,06,26,17,19,24.10